Vorticity
nan nan nan nan nan nan nan nan nan nan nan nan nan nan nan nan nan nan nan nan nan nan nan nan nan nan nan nan nan nan nan nan nan nan nan nan nan nan nan nan nan nan nan
nan 10 10 9 10 10 8 8 9 8 9 10 9 10 11 9 10 11 10 9 12 9 6 9 10 8 9 7 9 10 10 8 9 10 9 9 9 9 7 9 8 14 nan
nan 12 10 9 9 9 9 10 9 8 8 10 11 11 11 12 10 11 11 9 9 10 10 8 9 9 8 10 9 7 7 9 10 10 9 9 9 8 10 10 12 11 nan
nan 13 8 11 9 9 10 10 9 9 9 10 11 11 11 12 13 13 11 7 10 13 11 10 10 9 10 10 8 7 9 10 11 10 10 9 8 8 8 11 11 9 nan
nan 8 14 10 7 8 8 10 10 10 11 11 10 12 11 12 14 16 9 8 12 10 10 10 13 17 14 10 13 14 12 11 9 9 8 9 9 10 9 10 10 8 nan
nan 14 7 11 10 8 8 10 10 9 9 11 12 12 10 14 20 13 8 9 12 10 9 7 10 12 12 11 9 16 16 13 11 10 10 9 10 9 10 10 9 8 nan
nan 11 9 10 10 9 9 9 11 14 11 9 10 11 12 16 21 14 8 9 11 10 10 11 8 7 6 3 5 7 9 10 12 10 10 11 11 11 10 9 9 8 nan
nan 9 11 5 11 9 13 10 9 9 13 13 11 9 10 19 16 13 9 8 9 10 9 9 9 10 9 6 6 5 6 6 8 13 14 14 15 14 9 10 10 10 nan
nan 10 7 9 11 8 10 11 11 10 12 12 13 10 16 15 11 12 5 7 11 10 10 12 12 12 14 8 7 8 7 6 7 12 14 16 14 10 9 9 10 8 nan
nan 10 7 14 8 10 10 13 11 10 11 13 12 16 17 11 14 9 6 7 9 9 9 7 15 22 14 8 7 10 9 9 7 6 7 9 9 8 9 8 9 8 nan
nan 10 9 9 12 10 11 10 11 13 12 13 15 16 11 8 11 5 13 15 10 10 9 6 10 16 12 11 12 14 12 11 9 8 8 8 9 9 9 10 8 9 nan
nan 11 10 9 9 10 12 12 11 11 14 16 16 9 8 11 9 7 9 20 18 11 11 12 14 12 13 11 13 15 15 10 7 10 9 9 10 10 12 11 9 8 nan
nan 11 12 9 9 10 11 11 12 16 17 16 12 9 9 6 9 11 6 13 18 16 16 14 12 8 5 10 14 10 9 9 9 10 10 10 11 12 10 11 11 8 nan
nan 13 12 13 11 9 10 14 15 16 18 14 9 8 10 9 7 7 9 6 6 12 14 9 6 4 7 9 7 8 10 11 11 10 11 11 11 10 10 10 11 9 nan
nan 13 10 11 12 13 14 20 28 21 14 13 12 13 9 13 13 12 10 12 10 9 6 8 9 8 9 8 9 10 9 9 10 10 11 10 10 9 11 12 11 9 nan
nan 11 13 12 13 19 18 4 20 36 26 14 15 10 14 20 16 12 15 19 16 6 5 10 9 10 10 10 10 10 10 11 11 11 10 10 10 11 10 9 11 12 nan
nan 9 10 14 23 18 8 11 3 1 12 19 21 15 20 15 12 14 13 7 2 5 10 10 10 11 11 11 11 11 11 12 12 12 10 10 11 12 11 9 9 10 nan
nan 13 19 21 18 13 12 12 9 8 1 -3 7 19 15 15 12 10 5 2 3 10 14 12 12 11 11 11 11 11 11 11 11 11 12 11 11 10 10 10 10 10 nan
nan 20 20 18 11 10 10 12 10 10 10 10 5 6 9 11 9 7 7 7 9 10 11 12 12 12 11 10 11 11 10 11 11 10 12 12 10 10 11 8 9 11 nan
nan 12 13 13 10 11 10 11 11 10 9 11 11 9 10 8 6 6 10 10 10 9 12 13 11 11 11 10 10 10 10 10 10 11 11 12 11 10 9 11 9 11 nan
nan 12 9 10 11 11 12 12 11 11 11 11 10 10 14 9 12 14 12 10 9 11 13 14 11 10 12 12 13 12 10 10 11 11 11 9 9 11 12 12 13 11 nan
nan 9 9 11 12 12 11 12 12 11 11 10 9 10 11 12 12 12 11 12 13 12 11 12 11 11 10 10 16 16 14 13 13 11 10 12 13 11 11 14 14 13 nan
nan 12 11 10 11 12 12 11 11 12 12 12 10 10 9 11 11 11 10 12 13 12 12 12 10 10 10 13 12 12 12 12 15 17 14 13 12 13 12 12 12 12 nan
nan 14 12 11 10 10 10 11 10 10 10 10 11 11 11 11 10 10 12 13 11 10 12 11 10 12 13 16 14 13 12 12 14 15 15 16 16 15 12 9 11 12 nan
nan 10 10 11 10 12 12 10 10 9 10 11 11 11 11 11 10 9 12 12 11 10 12 12 12 11 13 14 15 13 13 15 17 14 12 11 13 13 14 13 12 8 nan
nan nan nan nan nan nan nan nan nan nan nan nan nan nan nan nan nan nan nan nan nan nan nan nan nan nan nan nan nan nan nan nan nan nan nan nan nan nan nan nan nan nan nan
CAPE
0 32 141 59 134 209 199 200 223 701 989 1133 1083 1712 2643 3436 3661 3548 3648 3492 3400 2960 2629 2402 2841 2437 2766 2169 1958 1686 1320 1099 850 642 1028 889 594 695 717 588 492 479 0
23 41 88 200 359 351 101 150 637 531 1062 1115 1469 1606 1388 1456 2873 3525 3713 3550 3188 2625 2582 2604 2729 2765 2808 2348 2051 1745 1120 1235 1032 657 716 622 482 402 457 520 519 418 38
16 38 270 356 549 392 388 306 308 346 525 975 1425 1656 2107 2397 2885 3544 3759 3404 2623 2635 2783 2719 2706 2708 2484 2097 1906 1595 1030 1150 1017 764 906 494 307 142 14 225 394 278 14
0 24 78 642 688 744 707 380 174 133 265 843 1387 1684 2069 2003 2622 3482 3428 2720 2495 2898 2877 2908 2783 2403 2264 2064 1698 1599 1100 1146 1106 830 731 522 188 5 3 4 77 145 12
0 113 244 627 751 535 361 234 154 174 410 597 948 1501 1715 2179 2524 3031 2868 2764 3048 2902 3132 2986 2466 2073 1729 1818 1687 1383 1106 975 1012 689 502 461 149 1 0 2 108 29 50
118 122 157 232 218 356 291 438 244 140 294 888 1056 1243 1699 1941 2165 2468 2750 2944 3254 2981 2871 2452 1063 217 36 97 24 122 1498 1121 783 663 461 328 205 0 102 14 53 66 15
10 88 156 142 242 303 267 210 301 610 375 648 1614 1571 1674 2443 886 1060 2760 3098 2995 2790 2499 2336 1290 892 321 44 0 0 0 24 553 600 565 466 378 138 119 212 92 78 140
33 66 75 134 161 227 316 361 363 460 666 1246 1718 2085 2097 2453 262 667 2597 2730 2453 2309 2426 2091 1777 1332 983 847 337 443 381 178 142 289 837 648 496 407 276 347 166 169 118
95 79 47 43 213 305 255 516 569 527 523 1376 1843 2484 2383 293 0 889 2251 2426 2134 2199 1935 1856 1492 1304 850 405 632 431 386 0 0 0 5 117 48 143 360 201 94 169 116
82 51 91 243 340 345 451 650 528 760 1147 1411 1761 2549 2029 724 0 847 1864 1978 1801 1396 1437 87 56 967 155 140 1028 638 665 229 13 4 0 0 0 0 0 318 132 74 35
33 34 100 347 448 407 612 850 766 817 1386 1131 1858 2094 1945 591 0 0 90 1400 1282 1160 886 1119 52 0 0 0 271 716 509 437 150 349 215 71 137 94 27 86 252 271 40
45 95 134 348 426 414 669 753 849 1299 1502 1599 1742 1867 1510 507 0 0 47 138 686 652 860 585 0 2 1 0 26 0 0 176 401 271 62 95 43 112 58 207 227 169 137
78 108 188 370 233 352 526 651 1055 1367 1293 1569 1488 1376 788 22 1 1 0 8 337 496 197 10 2 0 2 1 1 0 25 135 89 85 123 169 215 162 98 160 175 263 263
66 163 227 307 372 405 411 532 730 1131 1202 1273 1320 814 555 130 10 0 0 0 0 0 0 0 0 0 0 0 0 0 79 57 56 79 87 147 113 71 11 210 141 181 141
66 126 166 102 104 72 179 264 701 1022 1175 1252 998 666 455 310 247 154 293 278 167 0 0 0 0 0 2 0 2 136 262 104 110 113 121 75 63 43 105 106 96 49 48
51 23 35 65 104 156 3 1 3 1 159 686 679 502 0 87 0 1 2 0 0 0 0 0 26 51 43 145 301 357 264 121 192 135 105 27 7 9 15 24 27 52 36
15 14 12 17 136 77 29 1 4 1 0 0 0 0 0 0 0 0 0 0 0 0 226 137 89 173 149 85 299 251 20 91 28 80 85 32 20 24 8 15 13 9 16
71 31 37 200 190 57 126 157 86 4 0 0 1 0 1 1 2 2 0 0 0 36 230 135 154 146 127 108 67 31 109 70 40 19 33 19 30 30 12 9 13 8 21
72 197 259 237 154 263 334 267 67 0 1 2 0 0 0 1 1 0 0 1 58 101 96 55 87 78 60 50 48 45 30 21 23 21 35 63 54 38 11 7 3 0 0
137 5 110 189 207 337 105 0 0 3 4 3 1 0 0 1 2 4 3 0 0 1 4 14 63 51 32 18 15 13 9 16 12 21 58 87 73 25 7 5 31 18 10
172 132 25 122 107 38 17 0 2 5 4 2 1 0 0 0 0 9 11 2 0 0 0 5 24 4 6 7 9 3 2 3 48 87 41 6 21 11 46 33 17 37 57
188 156 47 14 5 11 3 5 7 4 2 1 0 0 0 0 0 0 0 0 0 0 0 0 0 0 0 1 40 19 80 81 52 57 7 3 16 34 56 45 17 0 0
175 175 126 64 0 0 1 0 1 1 1 1 0 0 0 0 0 0 0 0 0 0 0 0 0 0 0 0 0 0 7 25 45 71 69 104 62 15 0 0 0 0 0
236 176 7 0 1 0 0 1 3 0 0 0 0 0 0 0 0 0 0 0 0 0 0 0 0 0 0 0 0 0 0 0 0 0 0 0 0 0 0 0 0 0 0
129 15 1 0 0 0 1 2 1 0 0 0 0 0 0 0 0 0 0 0 0 0 0 0 0 0 0 0 0 0 0 0 0 0 0 0 0 0 0 0 0 0 0
13 2 2 0 1 0 1 1 3 1 0 0 0 0 0 0 0 0 0 0 0 0 0 0 0 0 0 0 0 0 0 0 0 0 0 0 0 0 0 0 0 0 0